Retour au catalogue

STARLINK-3566

ActifCommunicationsVLEO
NORAD 51880·PAYLOAD·🇺🇸 United States

Lancé Mar 3, 2022 depuis Cape Canaveral Space Force Station

Loading…

Prochains Passages (prochaines 24 heures)

TLE

FraisSource: CelesTrak SupGP

Époque: Sep 15, 2026, 02:14 UTC

1 51880C 22022AE  26258.09354167 -.00009618  00000+0 -37890-3 0  2581
2 51880  53.1614 231.6688 0004057  39.5519 187.8727 15.25067298    12

Suivez STARLINK-3566 en temps réel avec AllMySat

Download on the App Store